TimeAKST,TemperatureF,Dew PointF,Humidity,Sea Level PressureIn,VisibilityMPH,Wind Direction,Wind SpeedMPH,Gust SpeedMPH,PrecipitationIn,Events,Conditions,WindDirDegrees,DateUTC
12:16 AM,24.8,15.8,69,29.79,10.0,ESE,3.5,-,N/A,,Overcast,110,2013-02-19 09:16:00
12:36 AM,24.8,15.8,69,29.78,10.0,Calm,Calm,-,N/A,,Overcast,0,2013-02-19 09:36:00
12:56 AM,24.8,12.2,59,29.78,10.0,West,4.6,-,N/A,,Overcast,260,2013-02-19 09:56:00
1:16 AM,24.8,15.8,69,29.78,10.0,Calm,Calm,-,N/A,,Overcast,0,2013-02-19 10:16:00
1:36 AM,24.8,14.0,64,29.79,10.0,East,4.6,-,N/A,,Overcast,100,2013-02-19 10:36:00
1:56 AM,24.8,15.8,69,29.80,10.0,ENE,3.5,-,N/A,,Overcast,70,2013-02-19 10:56:00
2:16 AM,24.8,14.0,64,29.81,10.0,East,3.5,-,N/A,,Overcast,100,2013-02-19 11:16:00
2:36 AM,24.8,15.8,69,29.80,10.0,East,3.5,-,N/A,,Overcast,80,2013-02-19 11:36:00
2:56 AM,23.0,15.8,74,29.80,10.0,East,3.5,-,N/A,,Overcast,90,2013-02-19 11:56:00
3:16 AM,23.0,12.2,63,29.81,10.0,Calm,Calm,-,N/A,,Overcast,0,2013-02-19 12:16:00
3:36 AM,23.0,14.0,68,29.81,10.0,NE,4.6,-,N/A,,Overcast,50,2013-02-19 12:36:00
3:56 AM,23.0,14.0,68,29.81,10.0,East,6.9,-,N/A,,Overcast,80,2013-02-19 12:56:00
4:16 AM,21.2,12.2,68,29.80,10.0,East,5.8,-,N/A,,Overcast,80,2013-02-19 13:16:00
4:36 AM,21.2,14.0,74,29.80,10.0,ENE,8.1,-,N/A,,Overcast,60,2013-02-19 13:36:00
4:56 AM,21.2,12.2,68,29.80,10.0,Calm,Calm,-,N/A,,Overcast,0,2013-02-19 13:56:00
5:16 AM,21.2,12.2,68,29.79,10.0,ESE,5.8,-,N/A,,Overcast,110,2013-02-19 14:16:00
5:36 AM,21.2,12.2,68,29.78,10.0,Calm,Calm,-,N/A,,Overcast,0,2013-02-19 14:36:00
5:56 AM,21.2,10.4,63,29.77,10.0,East,5.8,-,N/A,,Overcast,80,2013-02-19 14:56:00
6:16 AM,21.2,12.2,68,29.79,10.0,East,3.5,-,N/A,,Overcast,100,2013-02-19 15:16:00
6:36 AM,21.2,12.2,68,29.77,10.0,East,3.5,-,N/A,,Overcast,100,2013-02-19 15:36:00
6:56 AM,19.4,14.0,80,29.78,7.0,Calm,Calm,-,N/A,,Overcast,0,2013-02-19 15:56:00
7:16 AM,21.2,14.0,74,29.78,7.0,Calm,Calm,-,N/A,,Overcast,0,2013-02-19 16:16:00
7:36 AM,21.2,12.2,68,29.77,7.0,Calm,Calm,-,N/A,,Overcast,0,2013-02-19 16:36:00
7:56 AM,19.4,14.0,80,29.78,10.0,SE,9.2,-,N/A,,Overcast,130,2013-02-19 16:56:00
8:16 AM,19.4,15.8,86,29.77,10.0,East,5.8,-,N/A,,Overcast,80,2013-02-19 17:16:00
8:36 AM,19.4,15.8,86,29.77,2.0,SE,3.5,-,N/A,,Overcast,130,2013-02-19 17:36:00
8:56 AM,19.4,17.6,93,29.76,1.5,ESE,4.6,-,N/A,,Overcast,120,2013-02-19 17:56:00
9:16 AM,19.4,17.6,93,29.75,1.5,NNE,3.5,-,N/A,,Overcast,20,2013-02-19 18:16:00
9:36 AM,19.4,17.6,93,29.75,1.5,Calm,Calm,-,N/A,,Overcast,0,2013-02-19 18:36:00
9:56 AM,19.4,15.8,86,29.74,9.0,Calm,Calm,-,0.01,,Mostly Cloudy,0,2013-02-19 18:56:00
10:16 AM,19.4,17.6,93,29.73,9.0,Calm,Calm,-,N/A,,Mostly Cloudy,0,2013-02-19 19:16:00
10:36 AM,19.4,17.6,93,29.72,9.0,ENE,3.5,-,N/A,,Mostly Cloudy,60,2013-02-19 19:36:00
10:56 AM,19.4,15.8,86,29.72,10.0,Calm,Calm,-,N/A,,Mostly Cloudy,0,2013-02-19 19:56:00
11:16 AM,21.2,17.6,86,29.73,10.0,Calm,Calm,-,N/A,,Mostly Cloudy,0,2013-02-19 20:16:00
11:36 AM,21.2,15.8,80,29.72,10.0,Calm,Calm,-,N/A,,Mostly Cloudy,0,2013-02-19 20:36:00
11:56 AM,21.2,15.8,80,29.72,10.0,Calm,Calm,-,N/A,,Mostly Cloudy,0,2013-02-19 20:56:00
12:16 PM,21.2,12.2,68,29.72,10.0,Calm,Calm,-,N/A,,Mostly Cloudy,0,2013-02-19 21:16:00
12:36 PM,23.0,14.0,68,29.71,10.0,Calm,Calm,-,N/A,,Mostly Cloudy,0,2013-02-19 21:36:00
12:56 PM,23.0,15.8,74,29.71,10.0,Calm,Calm,-,N/A,,Mostly Cloudy,0,2013-02-19 21:56:00
1:16 PM,24.8,15.8,69,29.69,10.0,Calm,Calm,-,N/A,,Mostly Cloudy,0,2013-02-19 22:16:00
1:36 PM,24.8,17.6,74,29.69,10.0,Calm,Calm,-,N/A,,Mostly Cloudy,0,2013-02-19 22:36:00
1:56 PM,23.0,17.6,80,29.67,10.0,Calm,Calm,-,N/A,,Mostly Cloudy,0,2013-02-19 22:56:00
2:16 PM,23.0,14.0,68,29.66,10.0,Calm,Calm,-,N/A,,Mostly Cloudy,0,2013-02-19 23:16:00
4:47 PM,23.0,15.8,74,29.56,20.0,NNW,5.8,-,N/A,,Overcast,340,2013-02-20 01:47:00
5:47 PM,21.2,15.8,80,29.53,20.0,North,3.5,-,N/A,,Overcast,350,2013-02-20 02:47:00
6:16 PM,21.2,14.0,74,29.51,10.0,Calm,Calm,-,N/A,,Overcast,0,2013-02-20 03:16:00
6:47 PM,21.2,15.8,80,29.50,10.0,Calm,Calm,-,N/A,,Overcast,0,2013-02-20 03:47:00
7:47 PM,21.2,14.0,74,29.47,3.0,Calm,Calm,-,N/A,Snow,Light Snow,0,2013-02-20 04:47:00
8:47 PM,19.4,15.8,86,29.44,2.0,Calm,Calm,-,N/A,Snow,Light Snow,0,2013-02-20 05:47:00
9:47 PM,19.4,17.6,93,29.40,1.5,WSW,5.8,-,N/A,Snow,Light Snow,250,2013-02-20 06:47:00
11:16 PM,19.4,17.6,93,29.37,3.0,Calm,Calm,-,N/A,,Overcast,0,2013-02-20 08:16:00